This demonstration page uses our WeatherBlox Daily Observations layout. Learn more.

41.55636, -103.73856

Hourly Observations for May 30, 2015

Temp ( °F °C ) Dew Point ( °F °C ) Humidity (%) Winds ( mph kmh ) Pressure ( in mb ) Visibility ( mi km ) Precip ( " mm )
12:53 am 00:53 Cloudy 48 8.9 45 7.2 89 89 NE 7 11 30.27 1025 10 16.0934 0 0
1:26 am 01:26 Cloudy 48 8.9 45 7.2 89 89 E 6 9 30.27 1025 10 16.0934 0 0
1:37 am 01:37 Cloudy 47 8.3 45 7.2 93 93 E 7 11 30.3 1026 9 14.48406 0 0
1:53 am 01:53 Cloudy 47 8.3 45 7.2 93 93 E 8 13 30.28 1025 7 11.26538 0 0
2:46 am 02:46 Cloudy 46 8 45 7 93 93 SE 7 11 30.3 1026 9 14.48406 0 0
2:53 am 02:53 Cloudy 47 8.3 45 7.2 93 93 SE 7 11 30.28 1025 8 12.87472 0 0
3:42 am 03:42 Cloudy 46 8 46 8 100 100 SSW 6 9 30.3 1026 8 12.87472 0 0
3:53 am 03:53 Cloudy 47 8.3 46 7.8 97 97 S 5 7 30.28 1026 9 14.48406 0 0
4:53 am 04:53 Cloudy 47 8.3 45 7.2 93 93 ESE 5 7 30.26 1025 10 16.0934 0 0
5:53 am 05:53 Cloudy 48 8.9 46 7.8 93 93 SE 5 7 30.27 1025 9 14.48406 0 0
6:53 am 06:53 Cloudy 48 8.9 46 7.8 93 93 ESE 7 11 30.28 1025 9 14.48406 0 0
7:28 am 07:28 Cloudy 48 9 46 8 94 94 ESE 8 13 30.27 1025 10 16.0934 0 0
7:53 am 07:53 Cloudy 50 10 46 7.8 86 86 ESE 10 17 30.27 1025 10 16.0934 0 0
8:06 am 08:06 Cloudy 50 10 46 7.8 86 86 ESE 9 15 30.27 1025 10 16.0934 0 0
8:51 am 08:51 Partly Cloudy 54 12 46 8 77 77 SE 13 20 30.21 1023 10 16.0934 0 0
8:53 am 08:53 Partly Cloudy 53 11.7 46 7.8 77 77 SE 13 20 30.24 1024 10 16.0934 0 0
9:19 am 09:19 Mostly Cloudy 55 12.8 47 8.3 74 74 SE 12 19 30.18 1022 10 16.0934 0 0
9:41 am 09:41 Cloudy 53 11.7 47 8.3 80 80 ESE 12 19 30.21 1023 10 16.0934 0 0
9:53 am 09:53 Cloudy 54 12.2 48 8.9 80 80 ESE 12 19 30.24 1024 10 16.0934 0 0
10:53 am 10:53 Mostly Cloudy 58 14.4 49 9.4 72 72 ESE 12 19 30.22 1024 10 16.0934 0 0
11:53 am 11:53 Mostly Cloudy 61 16.1 49 9.4 65 65 SE 13 20 30.2 1023 10 16.0934 0 0
12:11 pm 12:11 Partly Cloudy 62 16.7 50 10 65 65 SE 13 20 30.09 1019 10 16.0934 0 0
12:53 pm 12:53 Partly Cloudy 63 17.2 50 10 63 63 SSE 16 26 30.18 1022 10 16.0934 0 0
1:53 pm 13:53 Sunny 66 18.9 51 10.6 59 59 ESE 16 26 30.15 1021 10 16.0934 0 0
2:53 pm 14:53 Sunny 69 20.6 52 11.1 55 55 SE 10 17 30.12 1020 10 16.0934 0 0
3:53 pm 15:53 Sunny 69 20.6 51 10.6 53 53 SE 16 26 30.1 1019 10 16.0934 0 0
4:53 pm 16:53 Sunny 68 20 50 10 53 53 SE 17 28 30.07 1018 10 16.0934 0 0
5:53 pm 17:53 Sunny 66 18.9 50 10 56 56 SE 16 26 30.06 1018 10 16.0934 0 0
6:53 pm 18:53 Sunny 66 18.9 51 10.6 59 59 SE 12 19 30.06 1018 10 16.0934 0 0
7:53 pm 19:53 undefined 62 16.7 50 10 65 65 SE 13 20 30.06 1018 10 16.0934 0 0
8:53 pm 20:53 Clear 59 15 50 10 72 72 SE 15 24 30.06 1018 10 16.0934 0 0
9:53 pm 21:53 Clear 56 13.3 48 8.9 75 75 ESE 13 20 30.08 1019 10 16.0934 0 0
10:53 pm 22:53 Clear 53 11.7 47 8.3 80 80 ESE 13 20 30.07 1018 10 16.0934 0 0
11:53 pm 23:53 Clear 51 10.6 46 7.8 83 83 ESE 12 19 30.07 1018 10 16.0934 0 0

Powered by AerisWeather